Location: *
(45.8589°N, 4.7139°E)
Time: 09:49:01
(UTC+00:00)

Mayak - Pass Details

Date: 09 April 2020
Orbit: 581 x 600 km, 97.5° (Epoch: 04 June)

Event Time Altitude Azimuth Distance (km) Brightness Sun altitude
Rises 22:00:58 0° 12° (NNE) 2,822 ? -31.5°
Reaches altitude 10° 22:03:08 10° 12° (NNE) 1,915 ? -31.7°
Enters shadow 22:04:24 19° 12° (NNE) 1,401 ? -31.8°
